Hourly Weather Rudnya (Skrygalov)

Today, 16 April, Friday

Time Temperature Precipitation Wind Pressure Humidity
00:00 +9°C° 0.3 mm 1 mps 746 mmHg 96%
01:00 +8°C° 0.3 mm 1 mps 746 mmHg 96%
02:00 +8°C° 0.3 mm 1 mps 746 mmHg 96%
03:00 +8°C° 0 mm 1 mps 746 mmHg 96%
04:00 +8°C° 0 mm 1 mps 746 mmHg 96%
05:00 +7°C° 0 mm 1 mps 746 mmHg 96%
06:00 +7°C° 0 mm 2 mps 747 mmHg 92%
07:00 +8°C° 0 mm 2 mps 747 mmHg 89%
08:00 +9°C° 0 mm 2 mps 747 mmHg 86%
09:00 +9°C° 0.4 mm 2 mps 747 mmHg 86%
10:00 +9°C° 0.4 mm 2 mps 747 mmHg 86%
11:00 +9°C° 0.4 mm 2 mps 747 mmHg 86%
12:00 +9°C° 0.3 mm 2 mps 747 mmHg 83%
13:00 +10°C° 0.3 mm 2 mps 747 mmHg 80%
14:00 +10°C° 0.3 mm 2 mps 747 mmHg 77%
15:00 +10°C° 0.2 mm 2 mps 747 mmHg 79%
16:00 +10°C° 0.2 mm 2 mps 748 mmHg 81%
17:00 +10°C° 0.2 mm 1 mps 748 mmHg 83%
18:00 +10°C° 0.2 mm 1 mps 748 mmHg 86%
19:00 +9°C° 0.2 mm 1 mps 748 mmHg 89%
20:00 +9°C° 0.2 mm 1 mps 749 mmHg 92%
21:00 +8°C° 0.1 mm 1 mps 749 mmHg 93%
22:00 +8°C° 0.1 mm 1 mps 749 mmHg 94%
23:00 +8°C° 0.1 mm 1 mps 749 mmHg 95%

Tomorrow, 17 April, Saturday

Time Temperature Precipitation Wind Pressure Humidity
00:00 +8°C° 0.1 mm 1 mps 749 mmHg 95%
01:00 +8°C° 0.1 mm 1 mps 750 mmHg 95%
02:00 +8°C° 0.1 mm 1 mps 750 mmHg 95%
03:00 +8°C° 0.1 mm 1 mps 750 mmHg 96%
04:00 +8°C° 0.1 mm 1 mps 750 mmHg 96%
05:00 +8°C° 0.1 mm 1 mps 750 mmHg 96%
06:00 +8°C° 0.2 mm 1 mps 751 mmHg 94%
07:00 +8°C° 0.2 mm 1 mps 751 mmHg 92%
08:00 +9°C° 0.2 mm 1 mps 752 mmHg 90%
09:00 +9°C° 0.2 mm 2 mps 752 mmHg 81%
10:00 +10°C° 0.2 mm 2 mps 752 mmHg 73%
11:00 +12°C° 0.2 mm 2 mps 752 mmHg 65%
12:00 +13°C° 0.1 mm 2 mps 752 mmHg 61%
13:00 +13°C° 0.1 mm 2 mps 752 mmHg 58%
14:00 +13°C° 0.1 mm 2 mps 752 mmHg 54%
15:00 +13°C° 0.1 mm 2 mps 752 mmHg 56%
16:00 +13°C° 0.1 mm 1 mps 752 mmHg 57%
17:00 +13°C° 0.1 mm 1 mps 752 mmHg 59%
18:00 +12°C° 0 mm 1 mps 752 mmHg 65%
19:00 +10°C° 0 mm 2 mps 752 mmHg 72%
20:00 +9°C° 0 mm 2 mps 752 mmHg 79%
21:00 +8°C° 0.4 mm 2 mps 752 mmHg 83%
22:00 +8°C° 0.4 mm 2 mps 751 mmHg 87%
23:00 +8°C° 0.4 mm 2 mps 751 mmHg 91%

Day after tomorrow, 18 April, Sunday

Time Temperature Precipitation Wind Pressure Humidity
00:00 +8°C° 0.5 mm 3 mps 751 mmHg 92%
01:00 +8°C° 0.5 mm 3 mps 750 mmHg 93%
02:00 +8°C° 0.5 mm 3 mps 750 mmHg 94%
03:00 +7°C° 0.5 mm 4 mps 750 mmHg 94%
04:00 +7°C° 0.5 mm 4 mps 749 mmHg 94%
05:00 +7°C° 0.5 mm 4 mps 749 mmHg 94%
06:00 +7°C° 0.1 mm 4 mps 749 mmHg 92%
07:00 +7°C° 0.1 mm 4 mps 749 mmHg 90%
08:00 +8°C° 0.1 mm 4 mps 749 mmHg 87%
09:00 +8°C° 0.1 mm 4 mps 750 mmHg 84%
10:00 +10°C° 0.1 mm 4 mps 750 mmHg 80%
11:00 +10°C° 0.1 mm 4 mps 750 mmHg 76%
12:00 +11°C° 0.2 mm 4 mps 750 mmHg 72%
13:00 +11°C° 0.2 mm 4 mps 750 mmHg 68%
14:00 +12°C° 0.2 mm 5 mps 750 mmHg 64%
15:00 +9°C° 0.1 mm 5 mps 750 mmHg 69%
16:00 +8°C° 0.1 mm 5 mps 751 mmHg 74%
17:00 +6°C° 0.1 mm 5 mps 751 mmHg 79%
18:00 +6°C° 0 mm 5 mps 751 mmHg 81%
19:00 +6°C° 0 mm 4 mps 752 mmHg 83%
20:00 +5°C° 0 mm 3 mps 752 mmHg 85%
21:00 +5°C° 0 mm 3 mps 752 mmHg 86%
22:00 +5°C° 0 mm 3 mps 752 mmHg 86%
23:00 +5°C° 0 mm 3 mps 751 mmHg 86%

19 April, Monday

Time Temperature Precipitation Wind Pressure Humidity
00:00 +6°C° 0 mm 2 mps 751 mmHg 88%
01:00 +5°C° 0 mm 2 mps 751 mmHg 90%
02:00 +5°C° 0 mm 2 mps 751 mmHg 92%
03:00 +5°C° 0 mm 2 mps 751 mmHg 93%
04:00 +4°C° 0 mm 2 mps 751 mmHg 93%
05:00 +3°C° 0 mm 3 mps 751 mmHg 94%
06:00 +4°C° 0 mm 3 mps 751 mmHg 91%
07:00 +5°C° 0 mm 3 mps 751 mmHg 89%
08:00 +5°C° 0 mm 3 mps 750 mmHg 86%
09:00 +5°C° 0 mm 3 mps 750 mmHg 85%
10:00 +7°C° 0 mm 3 mps 750 mmHg 84%
11:00 +7°C° 0 mm 3 mps 750 mmHg 83%
12:00 +7°C° 0.1 mm 3 mps 750 mmHg 82%
13:00 +7°C° 0.1 mm 3 mps 749 mmHg 81%
14:00 +7°C° 0.1 mm 2 mps 749 mmHg 81%
15:00 +8°C° 0 mm 2 mps 749 mmHg 80%
16:00 +8°C° 0 mm 2 mps 749 mmHg 78%
17:00 +8°C° 0 mm 2 mps 748 mmHg 77%
18:00 +8°C° 0 mm 2 mps 748 mmHg 78%
19:00 +8°C° 0 mm 1 mps 748 mmHg 78%
20:00 +8°C° 0 mm 1 mps 747 mmHg 79%
21:00 +8°C° 0 mm 1 mps 747 mmHg 82%
22:00 +6°C° 0 mm 2 mps 746 mmHg 84%
23:00 +6°C° 0 mm 2 mps 746 mmHg 87%

20 April, Tuesday

Time Temperature Precipitation Wind Pressure Humidity
00:00 +6°C° 0.1 mm 2 mps 745 mmHg 90%
01:00 +6°C° 0.1 mm 2 mps 745 mmHg 92%
02:00 +6°C° 0.1 mm 2 mps 744 mmHg 95%
03:00 +5°C° 0 mm 3 mps 744 mmHg 94%
04:00 +5°C° 0 mm 4 mps 743 mmHg 94%
05:00 +5°C° 0 mm 4 mps 742 mmHg 93%
06:00 +6°C° 0.1 mm 5 mps 742 mmHg 93%
07:00 +6°C° 0.1 mm 5 mps 741 mmHg 92%
08:00 +6°C° 0.1 mm 5 mps 740 mmHg 91%
09:00 +5°C° 0.1 mm 6 mps 739 mmHg 91%
10:00 +5°C° 0.1 mm 6 mps 738 mmHg 91%
11:00 +5°C° 0.1 mm 6 mps 737 mmHg 91%
12:00 +4°C° 0.6 mm 6 mps 737 mmHg 92%
13:00 +4°C° 0.6 mm 6 mps 736 mmHg 92%
14:00 +4°C° 0.6 mm 7 mps 736 mmHg 92%
15:00 +3°C° 0.9 mm 7 mps 735 mmHg 93%
16:00 +2°C° 0.9 mm 7 mps 735 mmHg 95%
17:00 +2°C° 0.9 mm 7 mps 735 mmHg 96%
18:00 +1°C° 0.7 mm 6 mps 734 mmHg 96%
19:00 +1°C° 0.7 mm 6 mps 734 mmHg 96%
20:00 +1°C° 0.7 mm 6 mps 734 mmHg 96%
21:00 +1°C° 0.6 mm 6 mps 734 mmHg 96%
22:00 +1°C° 0.6 mm 6 mps 734 mmHg 96%
23:00 +1°C° 0.6 mm 6 mps 734 mmHg 96%

21 April, Wednesday

Time Temperature Precipitation Wind Pressure Humidity
00:00 +1°C° 0.3 mm 6 mps 734 mmHg 96%
01:00 +1°C° 0.3 mm 6 mps 734 mmHg 96%
02:00 +2°C° 0.3 mm 6 mps 734 mmHg 96%
03:00 +2°C° 0.6 mm 6 mps 735 mmHg 96%
04:00 +2°C° 0.6 mm 7 mps 735 mmHg 96%
05:00 +2°C° 0.6 mm 7 mps 735 mmHg 96%
06:00 +2°C° 1 mm 7 mps 736 mmHg 96%
07:00 +2°C° 1 mm 7 mps 736 mmHg 96%
08:00 +1°C° 1 mm 8 mps 737 mmHg 96%
09:00 +3°C° 0.3 mm 7 mps 738 mmHg 96%
10:00 +3°C° 0.3 mm 7 mps 739 mmHg 96%
11:00 +3°C° 0.3 mm 7 mps 739 mmHg 96%
12:00 +3°C° 0.2 mm 7 mps 740 mmHg 96%
13:00 +3°C° 0.2 mm 7 mps 741 mmHg 96%
14:00 +3°C° 0.2 mm 7 mps 742 mmHg 96%
15:00 +4°C° 0.3 mm 6 mps 742 mmHg 94%
16:00 +4°C° 0.3 mm 6 mps 743 mmHg 93%
17:00 +4°C° 0.3 mm 6 mps 744 mmHg 91%
18:00 +4°C° 0.1 mm 6 mps 744 mmHg 90%
19:00 +4°C° 0.1 mm 6 mps 745 mmHg 88%
20:00 +4°C° 0.1 mm 6 mps 746 mmHg 86%
21:00 +5°C° 0 mm 5 mps 746 mmHg 87%
22:00 +5°C° 0 mm 5 mps 746 mmHg 88%
23:00 +5°C° 0 mm 4 mps 747 mmHg 89%
Show more